Sierra Vista, AZ

1:59 PM MST on May 23, 2018 (GMT -0700)
Sierra Vista Municipal-Libby Army Air Field

Weather History for KFHU - March, 2013

Change the Weather History Date:

Wednesday, March 27, 2013

  Actual Average Record
Temperature  
Mean Temperature 64 °F -  
Max Temperature 75 °F 69 °F 84 °F (1988)
Min Temperature 53 °F 47 °F 31 °F (1983)
Degree Days  
Heating Degree Days 1    
Growing Degree Days 14 (Base 50)    
Moisture  
Dew Point 17 °F    
Average Humidity 17    
Maximum Humidity 29    
Minimum Humidity 7    
Precipitation  
Precipitation 0.00 in - - ()
Sea Level Pressure  
Sea Level Pressure 29.92 in    
Wind  
Wind Speed 7 mph (SW)    
Max Wind Speed 20 mph    
Max Gust Speed 26 mph    
Visibility 10 miles    
Events      
Averages and records for this station are not official NWS values.
T = Trace of Precipitation, MM = Missing Value Source: NWS Daily Summary

Daily Weather History Graph

Daily Weather History Graph

Search for Another Location

Airport or City:

Astronomy

Mar. 27, 2013 Rise Set
Actual Time 6:15 AM MST 6:37 PM MST
Civil Twilight 5:51 AM MST 7:02 PM MST
Nautical Twilight 5:22 AM MST 7:30 PM MST
Astronomical Twilight 4:54 AM MST 7:59 PM MST
Moon 7:19 PM MST (3/27) 6:12 AM MST (3/27)
Length of Visible Light 13h 10m
Length of Day
12h 21m
Full, 100% of the Moon is Illuminated
Mar 27
Full
Apr 2
Last Quarter
Apr 10
New
Apr 18
First Quarter
Apr 25
Full

Hourly Weather History & Observations

Time (MST) Temp. Dew Point Humidity Pressure Visibility Wind Dir Wind Speed Gust Speed Precip Events Conditions
12:55 AM 62.6 °F 12.2 °F 14% 29.88 in 10.0 mi Variable 2.3 mph - N/A   Mostly Cloudy
1:55 AM 59.0 °F 12.2 °F 16% 29.88 in 10.0 mi West 10.4 mph - N/A   Mostly Cloudy
2:55 AM 55.4 °F 15.8 °F 21% 29.88 in 10.0 mi SW 5.8 mph - N/A   Mostly Cloudy
3:55 AM 53.6 °F 15.8 °F 22% 29.88 in 10.0 mi Variable 1.2 mph - N/A   Mostly Cloudy
4:55 AM 55.4 °F 15.8 °F 21% 29.88 in 10.0 mi Calm Calm - N/A   Mostly Cloudy
5:55 AM 55.4 °F 15.8 °F 21% 29.90 in 10.0 mi Variable 1.2 mph - N/A   Mostly Cloudy
6:55 AM 53.6 °F 17.6 °F 24% 29.94 in 10.0 mi SSE 4.6 mph - N/A   Mostly Cloudy
7:55 AM 59.0 °F 17.6 °F 20% 29.95 in 10.0 mi Calm Calm - N/A   Mostly Cloudy
8:55 AM 66.2 °F 15.8 °F 14% 29.95 in 10.0 mi ESE 8.1 mph - N/A   Mostly Cloudy
9:55 AM 71.6 °F 5.0 °F 7% 29.93 in 10.0 mi SSW 12.7 mph 16.1 mph N/A   Mostly Cloudy
10:55 AM 71.6 °F 8.6 °F 9% 29.94 in 10.0 mi WSW 10.4 mph 21.9 mph N/A   Mostly Cloudy
11:55 AM 71.6 °F 10.4 °F 9% 29.94 in 10.0 mi WSW 10.4 mph 21.9 mph N/A   Mostly Cloudy
12:55 PM 73.4 °F 12.2 °F 10% 29.92 in 10.0 mi SW 8.1 mph - N/A   Mostly Cloudy
1:55 PM 75.2 °F 8.6 °F 8% 29.91 in 10.0 mi WSW 12.7 mph 25.3 mph N/A   Mostly Cloudy
2:55 PM 75.2 °F 14.0 °F 10% 29.89 in 10.0 mi SW 19.6 mph 25.3 mph N/A   Mostly Cloudy
3:55 PM 75.2 °F 17.6 °F 11% 29.89 in 10.0 mi SSW 16.1 mph 26.5 mph N/A   Scattered Clouds
4:55 PM 73.4 °F 19.4 °F 13% 29.90 in 10.0 mi South 17.3 mph 26.5 mph N/A   Mostly Cloudy
5:55 PM 71.6 °F 19.4 °F 14% 29.91 in 10.0 mi WSW 11.5 mph 18.4 mph N/A   Mostly Cloudy
6:55 PM 69.8 °F 21.2 °F 16% 29.94 in 10.0 mi West 9.2 mph - N/A   Mostly Cloudy
7:55 PM 66.2 °F 24.8 °F 21% 29.94 in 10.0 mi SW 9.2 mph - N/A   Mostly Cloudy
8:55 PM 64.4 °F 24.8 °F 22% 29.95 in 10.0 mi SSW 6.9 mph - N/A   Mostly Cloudy
9:55 PM 64.4 °F 24.8 °F 22% 29.96 in 10.0 mi WSW 8.1 mph - N/A   Mostly Cloudy
10:55 PM 62.6 °F 24.8 °F 24% 29.96 in 10.0 mi West 8.1 mph - N/A   Mostly Cloudy
11:55 PM 57.2 °F 24.8 °F 29% 29.99 in 10.0 mi WSW 8.1 mph - N/A   Mostly Cloudy